Scottsdale, AZ

9:55 AM MST on April 23, 2017 (GMT -0700)
Scottsdale

Weather History for KSDL - May, 2013

Change the Weather History Date:

Monday, May 13, 2013

  Actual Average Record
Temperature  
Mean Temperature 86 °F -  
Max Temperature 98 °F 89 °F 100 °F (2002)
Min Temperature 73 °F 65 °F 59 °F (1998)
Cooling Degree Days 20    
Growing Degree Days 36 (Base 50)    
Moisture  
Dew Point 36 °F    
Average Humidity 18    
Maximum Humidity 33    
Minimum Humidity 9    
Precipitation  
Precipitation 0.00 in - - ()
Sea Level Pressure  
Sea Level Pressure 29.89 in    
Wind  
Wind Speed 2 mph (South)    
Max Wind Speed 7 mph    
Max Gust Speed -    
Visibility 10 miles    
Events      
Averages and records for this station are not official NWS values.
T = Trace of Precipitation, MM = Missing Value Source: NWS Daily Summary

Daily Weather History Graph

Daily Weather History Graph

Search for Another Location

Airport or City:

Trip Planner

Search our weather history database for the weather conditions in past years. The results will help you decide how hot, cold, wet, or windy it might be!

Date:

Astronomy

May. 13, 2013 Rise Set
Actual Time 5:28 AM MST 7:20 PM MST
Civil Twilight 5:00 AM MST 7:47 PM MST
Nautical Twilight 4:27 AM MST 8:20 PM MST
Astronomical Twilight 3:52 AM MST 8:56 PM MST
Moon 8:18 AM MST (5/13) 10:31 PM MST (5/13)
Length of Visible Light 14h 46m
Length of Day
13h 51m
Waxing Crescent, 13% of the Moon is Illuminated
May 13
Waxing Crescent
May 17
First Quarter
May 24
Full
May 31
Last Quarter
Jun 8
New

Hourly Weather History & Observations

Time (MST) Temp. Dew Point Humidity Pressure Visibility Wind Dir Wind Speed Gust Speed Precip Events Conditions
12:53 AM 79.0 °F 37.9 °F 23% 29.91 in 10.0 mi Calm Calm - N/A   Clear
1:53 AM 77.0 °F 39.0 °F 25% 29.91 in 10.0 mi Calm Calm - N/A   Clear
2:53 AM 73.0 °F 42.1 °F 33% 29.91 in 10.0 mi Calm Calm - N/A   Clear
3:53 AM 73.9 °F 43.0 °F 33% 29.92 in 10.0 mi Calm Calm - N/A   Clear
5:53 AM 73.0 °F 39.0 °F 29% 29.96 in 10.0 mi Calm Calm - N/A   Clear
6:53 AM 73.0 °F 39.0 °F 29% 29.98 in 10.0 mi SSE 3.5 mph - N/A   Clear
7:53 AM 80.1 °F 42.1 °F 26% 29.99 in 10.0 mi Calm Calm - N/A   Clear
8:53 AM 86.0 °F 37.9 °F 18% 29.99 in 10.0 mi Variable 4.6 mph - N/A   Clear
9:53 AM 89.1 °F 32.0 °F 13% 29.99 in 10.0 mi SE 6.9 mph - N/A   Clear
10:53 AM 91.0 °F 32.0 °F 12% 29.98 in 10.0 mi South 6.9 mph - N/A   Clear
11:53 AM 93.0 °F 32.0 °F 12% 29.96 in 10.0 mi South 4.6 mph - N/A   Clear
1:53 PM 95.0 °F 32.0 °F 11% 29.91 in 10.0 mi Calm Calm - N/A   Clear
2:53 PM 97.0 °F 32.0 °F 10% 29.88 in 10.0 mi Variable 5.8 mph - N/A   Clear
3:53 PM 97.0 °F 30.9 °F 10% 29.85 in 10.0 mi South 4.6 mph - N/A   Clear
5:53 PM 98.1 °F 30.9 °F 9% 29.80 in 10.0 mi SSW 6.9 mph - N/A   Clear
6:53 PM 97.0 °F 30.9 °F 10% 29.79 in 10.0 mi SW 5.8 mph - N/A   Clear
7:53 PM 93.0 °F 33.1 °F 12% 29.80 in 10.0 mi Calm Calm - N/A   Clear
8:53 PM 91.0 °F 34.0 °F 13% 29.80 in 10.0 mi Calm Calm - N/A   Clear
9:53 PM 88.0 °F 37.9 °F 17% 29.81 in 10.0 mi North 3.5 mph - N/A   Clear
10:53 PM 86.0 °F 36.0 °F 17% 29.81 in 10.0 mi NNE 3.5 mph - N/A   Clear
11:53 PM 84.0 °F 37.0 °F 19% 29.81 in 10.0 mi Calm Calm - N/A   Clear